• In Hungary
  • List of Countries
  • For 7 days
  • Water Temperature
  • Satellite Maps
  • Weather Map
  • News
  • Weather Widgets
  • user-avatar
    Login

    Hourly Weather Kozhevnevo

    Today, 20 August, Monday

    Time Temperature Precipitation Wind Pressure Humidity
    00:00 +17°C° 0 mm 2 mps 749 mmHg 96%
    01:00 +17°C° 0 mm 2 mps 749 mmHg 96%
    02:00 +16°C° 0 mm 2 mps 749 mmHg 97%
    03:00 +16°C° 0 mm 2 mps 749 mmHg 96%
    04:00 +16°C° 0 mm 2 mps 749 mmHg 96%
    05:00 +16°C° 0 mm 2 mps 749 mmHg 95%
    06:00 +17°C° 0 mm 2 mps 749 mmHg 91%
    07:00 +18°C° 0 mm 2 mps 749 mmHg 87%
    08:00 +19°C° 0 mm 3 mps 749 mmHg 82%
    09:00 +20°C° 0.1 mm 3 mps 749 mmHg 79%
    10:00 +21°C° 0.1 mm 3 mps 749 mmHg 77%
    11:00 +21°C° 0.1 mm 3 mps 748 mmHg 74%
    12:00 +21°C° 0.7 mm 3 mps 748 mmHg 77%
    13:00 +21°C° 0.7 mm 3 mps 748 mmHg 81%
    14:00 +20°C° 0.7 mm 3 mps 748 mmHg 84%
    15:00 +20°C° 0.5 mm 2 mps 747 mmHg 86%
    16:00 +20°C° 0.5 mm 2 mps 747 mmHg 88%
    17:00 +20°C° 0.5 mm 2 mps 747 mmHg 89%
    18:00 +19°C° 0 mm 2 mps 747 mmHg 91%
    19:00 +18°C° 0 mm 2 mps 746 mmHg 94%
    20:00 +18°C° 0 mm 2 mps 746 mmHg 96%
    21:00 +17°C° 0 mm 2 mps 746 mmHg 96%
    22:00 +17°C° 0 mm 2 mps 745 mmHg 96%
    23:00 +17°C° 0 mm 2 mps 745 mmHg 96%

    Tomorrow, 21 August, Tuesday

    Time Temperature Precipitation Wind Pressure Humidity
    00:00 +17°C° 0 mm 3 mps 744 mmHg 96%
    01:00 +17°C° 0 mm 3 mps 744 mmHg 96%
    02:00 +17°C° 0 mm 4 mps 743 mmHg 95%
    03:00 +17°C° 0.1 mm 4 mps 743 mmHg 95%
    04:00 +17°C° 0.1 mm 4 mps 742 mmHg 94%
    05:00 +16°C° 0.1 mm 5 mps 742 mmHg 94%
    06:00 +17°C° 0.2 mm 5 mps 741 mmHg 91%
    07:00 +19°C° 0.2 mm 6 mps 740 mmHg 89%
    08:00 +19°C° 0.2 mm 6 mps 740 mmHg 86%
    09:00 +19°C° 0.6 mm 6 mps 740 mmHg 87%
    10:00 +19°C° 0.6 mm 6 mps 739 mmHg 87%
    11:00 +18°C° 0.6 mm 7 mps 739 mmHg 87%
    12:00 +18°C° 0.3 mm 7 mps 740 mmHg 81%
    13:00 +18°C° 0.3 mm 7 mps 740 mmHg 74%
    14:00 +20°C° 0.3 mm 7 mps 740 mmHg 68%
    15:00 +18°C° 0 mm 7 mps 741 mmHg 68%
    16:00 +17°C° 0 mm 6 mps 741 mmHg 69%
    17:00 +16°C° 0 mm 6 mps 742 mmHg 69%
    18:00 +15°C° 0 mm 5 mps 742 mmHg 74%
    19:00 +13°C° 0 mm 4 mps 743 mmHg 79%
    20:00 +12°C° 0 mm 3 mps 743 mmHg 84%
    21:00 +12°C° 0 mm 4 mps 744 mmHg 85%
    22:00 +12°C° 0 mm 4 mps 744 mmHg 86%
    23:00 +11°C° 0 mm 4 mps 744 mmHg 87%

    Day after tomorrow, 22 August, Wednesday

    Time Temperature Precipitation Wind Pressure Humidity
    00:00 +11°C° 0 mm 4 mps 744 mmHg 86%
    01:00 +11°C° 0 mm 4 mps 744 mmHg 86%
    02:00 +10°C° 0 mm 4 mps 745 mmHg 85%
    03:00 +10°C° 0 mm 4 mps 745 mmHg 85%
    04:00 +10°C° 0 mm 4 mps 745 mmHg 84%
    05:00 +10°C° 0 mm 4 mps 746 mmHg 83%
    06:00 +10°C° 0 mm 5 mps 746 mmHg 77%
    07:00 +12°C° 0 mm 5 mps 747 mmHg 71%
    08:00 +14°C° 0 mm 5 mps 747 mmHg 65%
    09:00 +14°C° 0 mm 6 mps 747 mmHg 60%
    10:00 +15°C° 0 mm 6 mps 748 mmHg 55%
    11:00 +16°C° 0 mm 6 mps 748 mmHg 50%
    12:00 +16°C° 0 mm 6 mps 748 mmHg 49%
    13:00 +16°C° 0 mm 6 mps 749 mmHg 48%
    14:00 +16°C° 0 mm 6 mps 749 mmHg 47%
    15:00 +16°C° 0 mm 5 mps 749 mmHg 50%
    16:00 +17°C° 0 mm 4 mps 750 mmHg 52%
    17:00 +15°C° 0 mm 4 mps 750 mmHg 55%
    18:00 +14°C° 0 mm 3 mps 751 mmHg 59%
    19:00 +12°C° 0 mm 3 mps 751 mmHg 64%
    20:00 +11°C° 0 mm 3 mps 752 mmHg 68%
    21:00 +10°C° 0 mm 2 mps 752 mmHg 71%
    22:00 +9°C° 0 mm 2 mps 752 mmHg 74%
    23:00 +8°C° 0 mm 2 mps 753 mmHg 77%

    23 August, Thursday

    Time Temperature Precipitation Wind Pressure Humidity
    00:00 +8°C° 0 mm 2 mps 753 mmHg 78%
    01:00 +8°C° 0 mm 2 mps 753 mmHg 80%
    02:00 +7°C° 0 mm 2 mps 753 mmHg 82%
    03:00 +7°C° 0 mm 2 mps 753 mmHg 83%
    04:00 +7°C° 0 mm 2 mps 754 mmHg 84%
    05:00 +7°C° 0 mm 2 mps 754 mmHg 85%
    06:00 +9°C° 0 mm 2 mps 754 mmHg 78%
    07:00 +11°C° 0 mm 3 mps 754 mmHg 71%
    08:00 +14°C° 0 mm 3 mps 754 mmHg 64%
    09:00 +16°C° 0 mm 3 mps 754 mmHg 59%
    10:00 +18°C° 0 mm 3 mps 754 mmHg 54%
    11:00 +19°C° 0 mm 4 mps 753 mmHg 49%
    12:00 +20°C° 0 mm 4 mps 753 mmHg 48%
    13:00 +20°C° 0 mm 4 mps 753 mmHg 47%
    14:00 +21°C° 0 mm 4 mps 753 mmHg 46%
    15:00 +20°C° 0 mm 3 mps 753 mmHg 50%
    16:00 +20°C° 0 mm 3 mps 752 mmHg 54%
    17:00 +20°C° 0 mm 3 mps 752 mmHg 58%
    18:00 +18°C° 0 mm 3 mps 752 mmHg 64%
    19:00 +16°C° 0 mm 2 mps 752 mmHg 71%
    20:00 +14°C° 0 mm 2 mps 752 mmHg 77%
    21:00 +13°C° 0 mm 2 mps 753 mmHg 79%
    22:00 +13°C° 0 mm 2 mps 753 mmHg 81%
    23:00 +12°C° 0 mm 2 mps 753 mmHg 83%

    24 August, Friday

    Time Temperature Precipitation Wind Pressure Humidity
    00:00 +12°C° 0 mm 2 mps 753 mmHg 84%
    01:00 +10°C° 0 mm 2 mps 753 mmHg 85%
    02:00 +10°C° 0 mm 2 mps 753 mmHg 87%
    03:00 +10°C° 0 mm 2 mps 753 mmHg 88%
    04:00 +9°C° 0 mm 2 mps 753 mmHg 88%
    05:00 +9°C° 0 mm 2 mps 753 mmHg 89%
    06:00 +12°C° 0 mm 2 mps 753 mmHg 82%
    07:00 +15°C° 0 mm 2 mps 753 mmHg 75%
    08:00 +17°C° 0 mm 2 mps 753 mmHg 67%
    09:00 +18°C° 0 mm 2 mps 753 mmHg 61%
    10:00 +20°C° 0 mm 3 mps 753 mmHg 56%
    11:00 +21°C° 0 mm 3 mps 753 mmHg 50%
    12:00 +22°C° 0 mm 3 mps 753 mmHg 48%
    13:00 +22°C° 0 mm 3 mps 752 mmHg 47%
    14:00 +24°C° 0 mm 3 mps 752 mmHg 46%
    15:00 +24°C° 0 mm 2 mps 752 mmHg 50%
    16:00 +23°C° 0 mm 2 mps 752 mmHg 54%
    17:00 +23°C° 0 mm 1 mps 752 mmHg 59%
    18:00 +20°C° 0 mm 1 mps 752 mmHg 65%
    19:00 +18°C° 0 mm 1 mps 752 mmHg 71%
    20:00 +15°C° 0 mm 1 mps 752 mmHg 78%
    21:00 +15°C° 0 mm 1 mps 752 mmHg 80%
    22:00 +14°C° 0 mm 1 mps 752 mmHg 82%
    23:00 +14°C° 0 mm 2 mps 752 mmHg 84%

    25 August, Saturday

    Time Temperature Precipitation Wind Pressure Humidity
    00:00 +13°C° 0 mm 2 mps 752 mmHg 85%
    01:00 +13°C° 0 mm 2 mps 752 mmHg 86%
    02:00 +12°C° 0 mm 2 mps 752 mmHg 88%
    03:00 +12°C° 0 mm 2 mps 752 mmHg 88%
    04:00 +12°C° 0 mm 2 mps 752 mmHg 88%
    05:00 +12°C° 0 mm 2 mps 752 mmHg 89%
    06:00 +14°C° 0 mm 2 mps 752 mmHg 81%
    07:00 +16°C° 0 mm 2 mps 752 mmHg 74%
    08:00 +18°C° 0 mm 2 mps 752 mmHg 66%
    09:00 +20°C° 0 mm 2 mps 752 mmHg 60%
    10:00 +22°C° 0 mm 3 mps 752 mmHg 54%
    11:00 +25°C° 0 mm 3 mps 752 mmHg 48%
    12:00 +25°C° 0 mm 3 mps 751 mmHg 46%
    13:00 +26°C° 0 mm 3 mps 751 mmHg 44%
    14:00 +26°C° 0 mm 3 mps 751 mmHg 43%
    15:00 +25°C° 0 mm 2 mps 751 mmHg 47%
    16:00 +25°C° 0 mm 2 mps 751 mmHg 51%
    17:00 +24°C° 0 mm 1 mps 750 mmHg 55%
    18:00 +22°C° 0 mm 1 mps 750 mmHg 60%
    19:00 +20°C° 0 mm 1 mps 750 mmHg 65%
    20:00 +18°C° 0 mm 1 mps 750 mmHg 70%
    21:00 +16°C° 0 mm 1 mps 750 mmHg 71%
    22:00 +15°C° 0 mm 1 mps 750 mmHg 73%
    23:00 +15°C° 0 mm 2 mps 751 mmHg 74%
    Show more